Regional Weather Roundup
Issued by NWS

Home | Current Version | Previous Version | Graphics & Text | Print | Product List | Glossary On
Versions: 1 2 3 4 5 6 7 8 9 10 11 12 13 14 15 16 17 18 19 20 21 22 23 24 25 26 27 28 29 30 31 32 33 34 35 36 37 38 39 40 41 42 43 44 45 46 47 48 49 50
000
ASUS43 KMKX 121921
RWRWI

WISCONSIN REGIONAL WEATHER ROUNDUP
NATIONAL WEATHER SERVICE MILWAUKEE/SULLIVAN WI
200 PM CDT SAT JUL 12 2014

NOTE: "FAIR" INDICATES FEW OR NO CLOUDS BELOW 12,000 FEET WITH NO
SIGNIFICANT WEATHER AND/OR OBSTRUCTIONS TO VISIBILITY.

WIZ001-002-006>008-014>016-023>028-122000-
NORTHWEST WISCONSIN

CITY           SKY/WX    TMP DP  RH WIND       PRES   REMARKS
SUPERIOR ARPT  CLOUDY    73  59  62 CALM      29.96S
ASHLAND        CLOUDY    72  61  68 N7        29.97S
HAYWARD        CLOUDY    78  63  59 S3        29.96F HX  80
SIREN          CLOUDY    75  64  68 NW5       29.98R
RICE LAKE      CLOUDY    72  66  82 SW7       29.98F
LADYSMITH      LGT RAIN  74  69  84 CALM      30.00S
EAU CLAIRE     LGT RAIN  74  71  91 SW3       29.97R
MENOMONIE      LGT RAIN  75  72  91 S7        29.97F
NEW RICHMOND   LGT RAIN  75  72  90 W6        29.98S
OSCEOLA        CLOUDY    75  73  93 W5        30.00S
$$

WIZ003>005-009-010-017-018-122000-
NORTH CENTRAL WISCONSIN

CITY           SKY/WX    TMP DP  RH WIND       PRES   REMARKS
WOODRUFF       CLOUDY    77  68  72 S7        29.98F
RHINELANDER    CLOUDY    76  66  71 SW3       29.99F
EAGLE RIVER    CLOUDY    76  61  60 SW6       29.97F
LAND O LAKES   CLOUDY    77  62  59 SW3       29.98F
PHILLIPS       CLOUDY    74  68  81 SW3       29.98S
TOMAHAWK       CLOUDY    76  67  75 CALM      29.99S
MEDFORD        CLOUDY    74  69  83 SW3       29.99R
MERRILL        CLOUDY    76  69  79 SW3       29.98S
$$

WIZ029-030-035-036-043>047-122000-
CENTRAL WISCONSIN

CITY           SKY/WX    TMP DP  RH WIND       PRES   REMARKS
WAUSAU         CLOUDY    76  68  76 CALM      29.96F
MOSINEE        PTSUNNY   73  72  94 S5        29.99F
MARSHFIELD     LGT RAIN  74  69  85 S3        29.99R
STEVENS POINT  CLOUDY    74  67  80 SE3       29.99R
WAUPACA        CLOUDY    80  70  70 E5        29.97F HX  83
WAUTOMA        CLOUDY    77  70  79 SE8       29.97F
WISC RAPIDS    CLOUDY    78  68  71 VRB3      29.98F HX  80
CAMP DOUGLAS   NOT AVBL
$$

WIZ011>013-019>022-031-037>040-048>050-122000-
NORTHEAST WISCONSIN

CITY           SKY/WX    TMP DP  RH WIND       PRES   REMARKS
ANTIGO         CLOUDY    75  68  80 SW5       29.99F
STURGEON BAY   CLOUDY    72  64  78 S3        29.97F
GREEN BAY      CLOUDY    79  69  71 VRB3      29.96F HX  81
MANITOWOC      CLOUDY    68  63  84 CALM      29.98F
APPLETON       CLOUDY    77  66  69 VRB5      29.99S
CLINTONVILLE   CLOUDY    75  68  78 S5        29.97S
OSHKOSH        CLOUDY    76  68  76 SE5       29.97S
$$

WIZ032>034-041-042-053>061-122000-
SOUTHWEST WISCONSIN

CITY           SKY/WX    TMP DP  RH WIND       PRES   REMARKS
LA CROSSE      RAIN      74  71  91 W3        29.98S FOG
SPARTA         LGT RAIN  74  69  84 CALM      30.01R
VIROQUA        MOCLDY    74  72  95 S5        30.02S
BOSCOBEL       CLOUDY    79  68  69 CALM      29.99F HX  81
PRAIRIE DU CHI LGT RAIN  79  68  69 E3        29.98F HX  81
PLATTEVILLE    FAIR      79  73  81 S10       30.01F HX  82
$$

WIZ056-057-062-063-064-067-068-122000-
SOUTH CENTRAL WISCONSIN

CITY           SKY/WX    TMP DP  RH WIND       PRES   REMARKS
BARABOO/DELLS  CLOUDY    75  67  75 S5        30.00S
LONE ROCK      CLOUDY    80  70  71 CALM      30.00S HX  83
WATERTOWN      CLOUDY    75  69  82 S6        29.98F
MADISON        CLOUDY    77  68  73 S9        30.00S
MIDDLETON      CLOUDY    77  68  72 S8        30.00F
MONROE         CLOUDY    73  70  88 S9        30.01S
JANESVILLE     CLOUDY    77  70  78 S9        30.00F
$$

WIZ051-052-058>065-066-070>072-122000-
SOUTHEAST WISCONSIN

CITY           SKY/WX    TMP DP  RH WIND       PRES   REMARKS
MILWAUKEE      CLOUDY    77  68  73 W10       29.99R
WAUKESHA       CLOUDY    73  68  83 SW7       30.00F
MILWAUKEE/TIMM CLOUDY    75  66  73 SW6       29.99R
RACINE         CLOUDY    76  70  82 W12G17    30.00S
BURLINGTON     CLOUDY    72  69  89 SW17      30.00F FOG
KENOSHA        CLOUDY    74  70  87 SW14G22   29.99S
FOND DU LAC    CLOUDY    78  67  68 SW7       29.98F HX  80
SHEBOYGAN      CLOUDY    74  65  73 SW7       29.99R
WEST BEND      CLOUDY    77  64  65 S8        29.99F
JUNEAU         CLOUDY    75  54  46 S5        29.99F
$$

LSZ147-162-122000-
LAKE SUPERIOR

STATION/POSITION TIME  TEMP    WIND        PRES    WAVE
                       AIR SEA DIR/SP/G            HT/PER
                 (UTC) (F)     (DEG/KT/KT) (MB)    (FT/S)
W MID LAKE BUOY  1850   47 39  260/  6/  6 1014.6F   0
PORT WING        1800   65      10/  2/  3 1014.6F
SAXON HARBOR     1800             CALM     1014.9F
$$

LMZ867-665-643>646-122000-
LAKE MICHIGAN

STATION/POSITION TIME  TEMP    WIND        PRES    WAVE
                       AIR SEA DIR/SP/G            HT/PER
                 (UTC) (F)     (DEG/KT/KT) (MB)    (FT/S)
N MID LAKE BUOY  1850   58 56  210/ 10/ 12 1014.8F   1/ 4
NORTHPORT PIER   1800   71     170/  4/  6 1014.9S
KEWAUNEE LAKESHO 1900   59     140/  4/  7 1015.6F
SHEBOYGAN LAKESH 1900   70     190/  9/ 10 1015.2S
PORT WASHINGTON  1900   64     190/  3/ 10 1015.6F
MILWAUKEE LAKESH 1900          240/  8/  9   N/A
S MID LAKE BUOY  1850   64 62  170/ 14/ 16 1015.3F   1/ 3
KENOSHA   LAKESH 1900   76     240/ 12/ 21   N/A
$$

TC  - TEMPERATURE IN CELSIUS
VSB - VISIBILITY IN STATUTE MILES
WCI - WIND CHILL INDEX
HX  - HEAT INDEX




USA.gov is the U.S. government's official web portal to all federal, state and local government web resources and services.